Latest Coastal Weather Observations for Truscott

IDW60701

Issued at 7:05 pm WST Tuesday 30 September 2014 (issued every 10 minutes, with the page automatically refreshed every 10 minutes)

About coastal observations | Map of coastal stations | Coastal observations for WA | Marine services | Other Formats
Station Details ID: 001020 Name: TRUSCOTT Lat: -14.09 Lon: 126.39 Height: 51.0 m
Data from the previous 72 hours. | See also: Recent months at Truscott
Date/Time
WST
Temp

°C
Wind Pressure Rain
since 9am
mm
Weather Cloud Vis
km
Sea
Height
m
Swell
Dir
 
Speed
knots
Gust
knots
hPa Trend Height
m
Period
s
Dir
30/07:00pm 26.0 N 5 6 1012.0 - 0.0 - - 10 - - - -
30/06:30pm 26.0 N 5 - 1012.0 - 0.0 - Partly cloudy 10 - - - -
30/06:00pm 26.4 N 5 - 1011.6 - 0.0 - Mostly clear 10 - - - -
30/05:30pm 27.0 N 6 - 1011.0 - 0.0 - - 10 - - - -
30/05:00pm 27.0 N 8 - 1011.0 - 0.0 - - 10 - - - -
30/04:30pm 28.0 NNW 8 - 1010.0 - 0.0 - - 10 - - - -
30/04:00pm 28.0 N 8 - 1010.0 - 0.0 - - 10 - - - -
30/03:30pm 28.0 N 8 - 1010.0 - 0.0 - - 10 - - - -
30/03:00pm 28.9 N 8 - 1010.0 - 0.0 - - 10 - - - -
30/02:30pm 29.0 N 9 - 1010.0 - 0.0 - - 10 - - - -
30/02:00pm 30.0 N 8 - 1010.0 - 0.0 - - 10 - - - -
30/01:30pm 30.0 N 9 - 1011.0 - 0.0 - - 10 - - - -
30/01:00pm 30.0 N 11 - 1011.0 - 0.0 - - 10 - - - -
30/12:30pm 31.0 N 9 - 1011.0 - 0.0 - - 10 - - - -
30/12:00pm 30.5 N 11 - 1011.6 - 0.0 - - 10 - - - -
30/11:30am 30.0 N 10 - 1012.0 - 0.0 - - 10 - - - -
30/11:00am 31.0 N 10 - 1012.0 - 0.0 - - 10 - - - -
30/10:30am 30.0 N 10 - 1013.0 - 0.0 - - 10 - - - -
30/10:00am 31.0 NW 7 - 1013.0 - 0.0 - - 10 - - - -
30/09:30am 30.0 WNW 6 - 1013.0 - 0.0 - - 10 - - - -
30/09:00am 29.2 WNW 5 - 1013.4 - 0.0 - - 10 - - - -
30/08:30am 28.0 W 6 - 1014.0 - 0.0 - Partly cloudy 10 - - - -
30/08:00am 28.0 WNW 4 - 1014.0 - 0.0 - - 10 - - - -
30/07:30am 27.0 WNW 5 8 1013.0 - 0.0 - Partly cloudy 10 - - - -
30/07:00am 26.0 WNW 4 - 1013.0 - 0.0 - Partly cloudy 10 - - - -
30/06:30am 25.0 WSW 2 - 1013.0 - 0.0 - Partly cloudy 10 - - - -
30/06:00am 23.5 CALM 0 - 1012.4 - 0.0 - Mostly clear 10 - - - -
30/05:30am 23.0 WNW 2 - 1012.0 - 0.0 - Partly cloudy 10 - - - -
30/05:00am 23.0 WSW 2 - 1012.0 - 0.0 - Partly cloudy 10 - - - -
30/04:30am 23.0 NW 3 - 1012.0 - 0.0 - Partly cloudy 10 - - - -
30/04:00am 22.0 CALM 0 - 1011.0 - 0.0 - - 10 - - - -
30/03:30am 23.0 WNW 3 - 1011.0 - 0.0 - - 10 - - - -
30/03:00am 22.8 CALM 0 - 1010.9 - 0.0 - - 10 - - - -
30/02:30am 22.0 CALM 0 - 1011.0 - 0.0 - - 10 - - - -
30/02:00am 23.0 CALM 0 - 1011.0 - 0.0 - - 10 - - - -
30/01:30am 23.0 W 3 - 1011.0 - 0.0 - Partly cloudy 10 - - - -
30/01:00am 23.0 CALM 0 - 1011.0 - 0.0 - Partly cloudy 10 - - - -
30/12:30am 23.0 CALM 0 - 1011.0 - 0.0 - - 10 - - - -
30/12:00am 23.4 WSW 0 0 1011.3 - 0.0 - - 10 - - - -
 
Date/Time
WST
Temp

°C
Wind Pressure Rain
since 9am
mm
Weather Cloud Vis
km
Sea
Height
m
Swell
Dir
 
Speed
knots
Gust
knots
hPa Trend Height
m
Period
s
Dir
29/11:30pm 24.0 WNW 3 - 1012.0 - 0.0 - - 10 - - - -
29/11:00pm 24.0 CALM 0 - 1012.0 - 0.0 - - 10 - - - -
29/10:30pm 25.0 CALM 0 - 1012.0 - 0.0 - - 10 - - - -
29/10:00pm 25.0 CALM 0 - 1012.0 - 0.0 - Partly cloudy 10 - - - -
29/09:30pm 25.0 WNW 4 - 1012.0 - 0.0 - Partly cloudy 10 - - - -
29/09:00pm 25.4 NW 3 - 1012.3 - 0.0 - - 10 - - - -
29/08:30pm 26.0 NW 5 - 1012.0 - 0.0 - - 10 - - - -
29/08:00pm 26.0 NW 5 - 1012.0 - 0.0 - Partly cloudy 10 - - - -
29/07:30pm 26.0 NW 5 - 1011.0 - 0.0 - - 10 - - - -
29/07:00pm 26.0 NW 5 - 1011.0 - 0.0 - Partly cloudy 10 - - - -
29/06:30pm 26.0 NW 5 - 1010.0 - 0.0 - Partly cloudy 10 - - - -
29/06:00pm 26.2 NW 6 - 1010.0 - 0.0 - - 10 - - - -
29/05:30pm 27.0 NW 6 - 1010.0 - 0.0 - - 10 - - - -
29/05:00pm 27.0 NW 9 - 1010.0 - 0.0 - - 10 - - - -
29/04:30pm 28.0 NW 10 - 1009.0 - 0.0 - - 10 - - - -
29/04:00pm 28.0 NW 9 - 1009.0 - 0.0 - Partly cloudy 10 - - - -
29/03:30pm 29.0 NNW 10 - 1009.0 - 0.0 - - 10 - - - -
29/03:00pm 29.1 NNW 9 - 1009.2 - 0.0 - Mostly clear 10 - - - -
29/02:30pm 29.0 N 11 - 1009.0 - 0.0 - Partly cloudy 10 - - - -
29/02:00pm 30.0 N 9 - 1010.0 - 0.0 - Partly cloudy 10 - - - -
29/01:30pm 29.0 N 11 - 1010.0 - 0.0 - - 10 - - - -
29/01:00pm 30.0 NW 12 - 1010.0 - 0.0 - Partly cloudy 10 - - - -
29/12:30pm 30.0 N 11 - 1011.0 - 0.0 - Partly cloudy 10 - - - -
29/12:00pm 30.4 NNW 10 - 1010.7 - 0.0 - - 10 - - - -
29/11:30am 30.0 N 11 - 1011.0 - 0.0 - - 10 - - - -
29/11:00am 31.0 N 12 - 1012.0 - 0.0 - - 10 - - - -
29/10:30am 31.0 NNE 10 - 1012.0 - 0.0 - Partly cloudy 10 - - - -
29/10:00am 31.0 W 6 - 1012.0 - 0.0 - - 10 - - - -
29/09:30am 30.0 NW 6 - 1012.0 - 0.0 - - 10 - - - -
29/09:00am 30.1 WNW 5 - 1012.3 - 0.0 - - 10 - - - -
29/08:30am 29.0 W 4 - 1012.0 - 0.0 - Partly cloudy 10 - - - -
29/08:00am 28.0 W 3 - 1012.0 - 0.0 - Partly cloudy 10 - - - -
29/07:58am 28.0 WSW 3 - 1012.0 - 0.0 - Partly cloudy 10 - - - -
29/07:42am 28.0 E 3 - 1012.0 - 0.0 - Partly cloudy 10 - - - -
29/07:30am 28.0 WSW 5 - 1012.0 - 0.0 - Partly cloudy 10 - - - -
29/07:00am 27.0 W 6 - 1012.0 - 0.0 - - 10 - - - -
29/06:30am 25.0 W 5 - 1011.0 - 0.0 - - 10 - - - -
29/06:00am 23.9 W 3 - 1011.0 - 0.0 - - 10 - - - -
29/05:30am 22.0 W 1 - 1011.0 - 0.0 - - 10 - - - -
29/05:00am 22.0 W 1 - 1011.0 - 0.0 - - 10 - - - -
29/04:30am 24.0 W 4 - 1010.0 - 0.0 - - 10 - - - -
29/04:00am 23.0 W 4 - 1010.0 - 0.0 - - 10 - - - -
29/03:30am 23.0 W 4 - 1010.0 - 0.0 - - 10 - - - -
29/03:00am 22.9 W 5 - 1009.7 - 0.0 - - 10 - - - -
29/02:30am 24.0 W 5 - 1010.0 - 0.0 - - 10 - - - -
29/02:00am 24.0 W 4 - 1010.0 - 0.0 - - 10 - - - -
29/01:30am 24.0 W 4 - 1010.0 - 0.0 - - 10 - - - -
29/01:00am 24.0 SW 3 - 1010.0 - 0.0 - - 10 - - - -
29/12:30am 24.0 W 5 - 1010.0 - 0.0 - - 10 - - - -
29/12:00am 24.5 W 5 - 1010.3 - 0.0 - - 10 - - - -
 
Date/Time
WST
Temp

°C
Wind Pressure Rain
since 9am
mm
Weather Cloud Vis
km
Sea
Height
m
Swell
Dir
 
Speed
knots
Gust
knots
hPa Trend Height
m
Period
s
Dir
28/11:30pm 25.0 W 4 - 1011.0 - 0.0 - - 10 - - - -
28/11:00pm 25.0 W 5 - 1011.0 - 0.0 - - 10 - - - -
28/10:30pm 25.0 W 5 - 1011.0 - 0.0 - - 10 - - - -
28/10:00pm 25.0 WNW 4 - 1011.0 - 0.0 - - 10 - - - -
28/09:30pm 25.0 WNW 4 - 1012.0 - 0.0 - - 10 - - - -
28/09:00pm 25.1 NW 4 - 1011.5 - 0.0 - - 10 - - - -
28/08:30pm 26.0 NW 4 - 1011.0 - 0.0 - - 10 - - - -
28/08:00pm 26.0 NW 4 - 1011.0 - 0.0 - - 10 - - - -
28/07:30pm 26.0 NNW 5 - 1011.0 - 0.0 - - 10 - - - -
28/07:00pm 26.0 NNW 5 - 1011.0 - 0.0 - - 10 - - - -
28/06:30pm 26.0 NNW 5 - 1010.0 - 0.0 - - 10 - - - -
28/06:00pm 26.7 NNW 5 - 1010.0 - 0.0 - - 10 - - - -
28/05:30pm 27.0 NNW 5 - 1010.0 - 0.0 - - 10 - - - -
28/05:00pm 28.0 NNW 7 - 1009.0 - 0.0 - - 10 - - - -
28/04:30pm 29.0 N 8 - 1009.0 - 0.0 - - 10 - - - -
28/04:00pm 30.0 N 9 - 1009.0 - 0.0 - - 10 - - - -
28/03:30pm 31.0 N 7 - 1009.0 - 0.0 - - 10 - - - -
28/03:00pm 31.3 NNW 8 - 1008.7 - 0.0 - - 10 - - - -
28/02:30pm 34.0 NNW 8 - 1009.0 - 0.0 - - 10 - - - -
28/02:00pm 33.0 NNW 8 - 1009.0 - 0.0 - - 10 - - - -
28/01:30pm 33.0 N 9 - 1009.0 - 0.0 - - 10 - - - -
28/01:00pm 33.0 NNW 9 - 1010.0 - 0.0 - - 10 - - - -
28/12:30pm 33.0 N 8 - 1010.0 - 0.0 - - 10 - - - -
28/12:00pm 33.7 NNW 9 - 1010.5 - 0.0 - - 10 - - - -
28/11:30am 35.0 N 10 - 1011.0 - 0.0 - - 10 - - - -
28/11:00am 36.0 NW 6 - 1012.0 - 0.0 - - 10 - - - -
28/10:30am 36.0 SW 7 - 1012.0 - 0.0 - - 10 - - - -
28/10:00am 34.0 S 5 - 1013.0 - 0.0 - - 10 - - - -
28/09:30am 33.0 SSW 7 - 1014.0 - 0.0 - - 10 - - - -
28/09:00am 32.1 SW 7 - 1013.5 - 0.0 - - 10 - - - -
28/08:30am 30.0 SW 9 - 1014.0 - 0.0 - - 10 - - - -
28/08:00am 29.0 SW 8 - 1014.0 - 0.0 - - 10 - - - -
28/07:30am 28.0 SW 9 - 1014.0 - 0.0 - - 10 - - - -
28/07:00am 27.0 SW 6 - 1014.0 - 0.0 - - 10 - - - -
28/06:30am 26.0 SSW 6 - 1014.0 - 0.0 - - 10 - - - -
28/06:00am 24.9 SSW 7 - 1013.2 - 0.0 - - 10 - - - -
28/05:30am 24.0 SW 6 - 1013.0 - 0.0 - - 10 - - - -
28/05:00am 24.0 SSW 6 - 1013.0 - 0.0 - - 10 - - - -
28/04:30am 24.0 SSW 6 - 1012.0 - 0.0 - - 10 - - - -
28/04:00am 24.0 SW 6 - 1012.0 - 0.0 - - 10 - - - -
28/03:30am 25.0 SW 5 - 1012.0 - 0.0 - - 10 - - - -
28/03:00am 25.1 WSW 5 - 1011.9 - 0.0 - - 10 - - - -
28/02:30am 25.0 WSW 6 - 1012.0 - 0.0 - - 10 - - - -
28/02:00am 26.0 WSW 7 - 1012.0 - 0.0 - - 10 - - - -
28/01:30am 26.0 WSW 7 - 1012.0 - 0.0 - - 10 - - - -
28/01:00am 25.0 WSW 6 - 1012.0 - 0.0 - - 10 - - - -
28/12:30am 26.0 WSW 7 - 1013.0 - 0.0 - - 10 - - - -
28/12:00am 25.8 WSW 6 - 1012.8 - 0.0 - - 10 - - - -
 
Date/Time
WST
Temp

°C
Wind Pressure Rain
since 9am
mm
Weather Cloud Vis
km
Sea
Height
m
Swell
Dir
 
Speed
knots
Gust
knots
hPa Trend Height
m
Period
s
Dir
27/11:30pm 26.0 WSW 5 - 1013.0 - 0.0 - - 10 - - - -
27/11:00pm 26.0 WSW 5 - 1014.0 - 0.0 - - 10 - - - -
27/10:30pm 26.0 W 5 - 1014.0 - 0.0 - - 10 - - - -
27/10:00pm 26.0 W 5 - 1014.0 - 0.0 - - 10 - - - -
27/09:30pm 27.0 WSW 5 - 1014.0 - 0.0 - - 10 - - - -
27/09:00pm 26.4 W 7 - 1013.9 - 0.0 - - 10 - - - -
27/08:30pm 27.0 W 6 - 1014.0 - 0.0 - - 10 - - - -
27/08:00pm 27.0 WSW 5 - 1013.0 - 0.0 - - 9 - - - -
27/07:30pm 27.0 WSW 5 - 1013.0 - 0.0 - - 10 - - - -

Other Formats:

Comma delimited format used in spreadsheet applications
http://www.bom.gov.au/fwo/IDW60701/IDW60701.95101.axf

JavaScript Object Notation format (JSON) in row-major order
http://www.bom.gov.au/fwo/IDW60701/IDW60701.95101.json